Temperature
0 0 0 0 0 0 0 0 1 1 1 1 2 2 3 2 2 2 2 1 2 2 2 3 5 5 5 5 6 6 7 8 8 8 9 8 8 9
-1 -1 -1 -1 -1 -1 -1 -1 -1 -1 -0 -0 -0 0 0 1 1 1 1 0 1 1 1 2 3 3 5 6 6 6 6 7 7 8 9 9 9 9
-2 -1 -1 -2 -2 -2 -2 -2 -2 -2 -2 -2 -2 -1 -1 -1 -1 -1 -0 -0 -0 -0 0 1 1 2 2 4 5 5 6 6 6 7 8 9 9 9
-2 -2 -2 -2 -3 -3 -3 -3 -3 -3 -3 -3 -3 -3 -3 -2 -2 -2 -2 -1 -1 -1 -0 -0 0 1 1 3 3 3 4 5 6 6 7 8 9 8
-3 -3 -3 -4 -4 -4 -4 -4 -4 -4 -4 -4 -4 -4 -4 -3 -3 -3 -3 -2 -2 -1 -1 -1 -0 0 0 1 2 2 3 4 5 6 6 7 8 7
-4 -4 -4 -5 -5 -5 -5 -5 -5 -5 -5 -5 -5 -5 -5 -4 -4 -4 -3 -3 -3 -2 -2 -2 -1 -1 -0 0 1 2 2 3 4 5 5 6 7 7
-5 -5 -5 -6 -6 -6 -6 -6 -6 -6 -6 -6 -5 -5 -5 -5 -5 -5 -5 -4 -4 -3 -3 -2 -2 -2 -1 -1 0 1 2 2 2 3 4 6 7 7
-5 -6 -6 -6 -6 -6 -6 -6 -6 -6 -6 -6 -6 -6 -6 -6 -6 -6 -6 -5 -5 -4 -3 -3 -3 -3 -2 -2 -1 -0 1 1 1 2 3 4 6 7
-6 -6 -6 -6 -6 -7 -6 -6 -6 -7 -7 -7 -7 -7 -7 -7 -7 -7 -6 -6 -5 -5 -4 -4 -4 -3 -3 -3 -2 -1 0 1 1 1 2 4 5 6
-6 -6 -6 -6 -7 -6 -6 -7 -7 -7 -7 -8 -8 -8 -8 -7 -7 -7 -7 -6 -6 -5 -5 -5 -4 -4 -4 -4 -3 -2 -1 -0 0 1 2 4 5 6
-6 -6 -7 -7 -7 -7 -7 -7 -8 -8 -8 -8 -8 -8 -8 -8 -8 -7 -7 -7 -6 -6 -6 -6 -5 -5 -5 -4 -3 -3 -2 -1 0 1 3 4 5 6
-7 -7 -7 -7 -7 -7 -8 -8 -8 -9 -9 -9 -9 -9 -9 -9 -8 -8 -8 -8 -7 -7 -7 -6 -6 -6 -6 -5 -4 -4 -3 -1 1 2 3 4 5 4
-8 -7 -7 -7 -8 -8 -8 -8 -9 -9 -9 -10 -10 -10 -9 -9 -9 -9 -9 -9 -9 -8 -8 -7 -7 -7 -7 -7 -6 -5 -4 -1 1 2 2 3 3 4
-8 -8 -8 -8 -9 -9 -9 -9 -9 -10 -10 -10 -10 -10 -10 -10 -10 -9 -9 -9 -9 -8 -8 -8 -8 -8 -8 -8 -7 -6 -5 -3 -0 1 1 1 2 2
-8 -8 -8 -9 -10 -10 -10 -10 -10 -11 -11 -11 -10 -10 -10 -10 -10 -10 -9 -9 -8 -8 -8 -8 -8 -8 -9 -9 -8 -7 -5 -3 -2 -0 -0 -0 -0 0
-8 -9 -9 -10 -10 -10 -10 -11 -11 -11 -11 -11 -11 -11 -11 -10 -10 -10 -9 -9 -8 -8 -8 -8 -9 -9 -9 -9 -8 -6 -5 -4 -3 -2 -1 -1 -1 -1
-9 -9 -10 -10 -11 -11 -11 -11 -11 -11 -11 -11 -11 -11 -11 -10 -10 -10 -9 -8 -8 -8 -9 -9 -9 -9 -9 -8 -7 -6 -5 -4 -3 -3 -2 -3 -3 -2
-10 -10 -11 -11 -11 -11 -12 -12 -11 -11 -12 -12 -11 -11 -11 -10 -10 -9 -8 -8 -9 -9 -9 -9 -9 -9 -8 -8 -8 -7 -6 -5 -4 -3 -3 -3 -3 -3
-11 -11 -12 -12 -12 -12 -12 -12 -12 -12 -12 -12 -12 -11 -11 -10 -9 -9 -8 -9 -9 -9 -9 -9 -9 -8 -8 -8 -8 -7 -6 -5 -4 -4 -4 -4 -4 -4
-12 -12 -12 -12 -12 -12 -12 -12 -12 -12 -12 -12 -11 -11 -10 -10 -9 -9 -9 -9 -9 -9 -9 -9 -8 -8 -8 -9 -9 -8 -6 -5 -4 -4 -5 -5 -5 -5
-12 -12 -12 -13 -13 -13 -12 -13 -13 -12 -12 -11 -11 -11 -10 -9 -9 -9 -9 -9 -9 -8 -8 -8 -8 -8 -8 -8 -8 -8 -7 -6 -5 -5 -5 -5 -5 -6
-13 -13 -13 -13 -13 -13 -13 -13 -12 -12 -11 -11 -10 -10 -10 -10 -10 -9 -9 -9 -9 -8 -8 -8 -7 -7 -7 -8 -9 -9 -8 -7 -6 -6 -6 -6 -6 -6
-13 -13 -13 -13 -12 -12 -13 -13 -12 -11 -10 -10 -10 -9 -10 -10 -9 -9 -9 -9 -9 -8 -8 -8 -8 -7 -8 -8 -8 -8 -8 -8 -7 -7 -6 -6 -5 -5
Wind_Speed
13 14 13 14 14 15 15 16 17 19 19 22 19 21 18 18 21 21 23 25 30 31 28 29 28 24 26 28 26 27 28 28 23 24 23 24 29 30
13 16 16 15 15 16 16 16 16 17 19 20 20 22 22 21 23 25 24 26 27 31 32 31 23 25 30 31 27 25 26 25 25 25 24 24 26 26
16 17 18 18 16 16 16 16 16 16 17 20 19 23 27 27 24 24 23 23 21 28 34 31 28 29 31 31 27 27 25 24 23 23 22 22 26 27
18 18 19 17 19 18 16 17 17 18 18 21 22 22 26 27 26 26 24 21 22 25 34 34 32 31 32 33 27 22 20 21 19 20 21 20 21 24
18 19 19 20 20 18 19 19 17 17 18 20 22 21 21 22 24 24 25 22 22 23 29 30 30 29 29 29 28 23 21 19 15 15 16 17 16 20
18 18 19 19 20 20 19 20 19 20 20 19 20 20 21 23 21 21 21 20 20 20 22 23 26 28 27 27 26 25 20 16 15 16 15 14 14 18
19 18 18 20 23 21 19 20 21 20 20 20 20 20 20 21 21 20 21 21 20 18 17 16 16 17 18 22 22 23 22 19 17 17 18 18 18 20
18 19 19 20 21 25 28 29 28 25 23 20 20 21 24 23 22 21 20 21 19 15 16 17 15 16 17 16 23 26 26 24 22 20 20 22 22 24
18 19 18 17 21 21 25 29 28 27 26 23 23 24 25 24 24 24 22 22 20 17 17 18 15 15 16 16 27 30 30 29 24 22 22 24 26 27
18 19 20 21 21 25 25 23 21 22 24 23 22 22 23 24 23 23 23 23 21 16 12 15 15 15 14 13 25 29 28 26 26 29 31 30 28 27
19 19 21 21 28 32 26 24 24 22 25 29 31 30 33 33 26 18 18 17 17 15 10 12 14 14 12 13 14 19 21 25 32 34 33 30 25 23
18 19 23 26 30 34 28 25 23 23 23 24 23 24 24 24 26 19 17 17 17 16 10 8 12 12 9 8 7 10 15 25 30 22 16 13 9 4
17 18 18 27 32 38 34 23 24 26 23 21 19 19 17 16 16 16 16 16 18 17 15 13 11 13 11 12 13 12 11 14 12 6 11 12 15 14
19 18 19 31 36 35 26 26 31 26 17 16 17 17 16 16 16 18 19 19 19 21 20 17 13 12 12 14 13 11 8 10 7 6 8 12 16 21
19 23 29 33 30 24 26 29 24 16 15 16 17 17 16 18 18 18 18 18 18 17 15 12 10 10 11 12 11 11 7 6 6 7 9 10 10 11
18 22 27 27 22 22 21 19 15 16 16 16 17 17 18 17 17 16 15 15 14 11 5 3 6 10 10 12 11 8 3 3 4 8 11 12 11 12
22 18 16 16 16 16 16 16 16 16 17 16 17 18 17 17 16 15 14 13 10 8 6 4 5 8 7 5 4 1 3 3 3 9 12 13 12 12
21 16 16 15 16 17 17 17 17 17 16 17 17 17 17 16 16 14 11 9 7 7 6 7 7 5 2 9 12 5 5 5 6 8 11 12 11 10
16 14 15 15 16 16 16 17 17 17 17 16 17 16 16 15 15 12 9 7 6 6 7 7 7 6 3 4 8 12 6 6 8 10 10 9 8 8
13 14 15 15 16 16 16 17 17 17 16 16 16 15 14 13 12 10 9 8 7 7 6 6 7 7 5 4 4 8 12 8 9 11 11 11 10 11
14 14 15 15 16 16 16 17 17 17 18 16 14 14 13 12 10 9 9 10 8 6 6 6 5 4 2 0 5 8 11 12 11 9 9 9 7 6
14 14 15 15 16 16 16 16 16 16 16 15 14 12 12 10 9 9 8 8 7 6 5 4 4 2 2 5 8 9 9 11 14 17 15 10 4 5
14 15 15 16 16 16 16 16 17 16 15 14 12 12 11 10 9 8 8 7 7 6 4 3 4 6 6 7 8 9 9 9 8 9 9 10 10 12
Wind_Direction
312 306 303 301 302 302 304 303 301 302 303 305 310 310 308 311 307 315 309 304 305 304 301 301 294 299 304 300 296 287 283 283 279 271 262 259 272 259
305 302 300 300 305 303 300 301 300 297 294 296 303 303 311 306 309 307 305 304 299 301 298 288 288 300 294 295 296 293 288 282 279 274 269 265 264 260
305 303 302 302 301 303 302 296 296 296 297 295 297 305 306 306 306 306 305 302 299 296 292 292 298 288 285 286 290 290 288 286 285 277 267 264 262 258
307 306 304 304 301 300 297 299 298 298 297 298 301 302 303 307 307 307 306 303 297 292 291 290 287 284 284 285 287 291 293 286 287 284 278 266 262 264
307 307 306 305 302 303 304 302 301 302 301 298 299 302 302 305 307 305 302 300 296 296 295 292 289 289 288 286 286 288 284 277 276 279 274 263 254 258
309 307 306 305 305 307 304 303 306 304 300 299 300 303 305 305 305 304 304 304 302 299 295 291 294 292 291 295 296 292 280 275 277 274 271 271 266 258
309 310 308 307 303 302 303 304 304 301 301 301 301 305 307 308 309 308 307 306 302 300 294 299 305 304 301 297 288 278 268 262 257 261 270 275 277 272
312 311 310 307 308 310 306 303 302 304 307 303 304 304 305 305 306 305 305 302 303 302 306 305 300 294 291 288 287 286 281 269 255 253 259 267 272 273
312 311 311 311 315 308 306 306 308 300 301 304 301 300 300 299 302 301 300 297 294 298 301 291 292 283 286 281 285 284 280 272 264 265 265 265 266 262
312 311 311 312 310 310 312 310 305 310 308 304 298 295 293 297 299 298 295 292 290 289 285 289 299 292 293 292 292 286 280 284 281 274 270 266 262 256
315 313 312 309 309 319 321 313 312 313 311 305 303 305 305 301 299 298 296 296 296 292 295 290 294 294 294 292 286 298 302 298 289 275 268 265 259 250
313 312 310 312 316 319 319 314 313 315 313 310 310 309 303 300 299 298 301 298 297 296 300 292 297 296 294 287 309 308 302 303 298 270 252 245 222 158
311 311 314 320 321 322 320 315 313 315 316 314 310 305 302 302 300 301 298 294 292 289 294 293 294 291 285 289 298 299 303 307 312 57 69 76 97 102
311 313 318 322 324 321 320 321 321 321 315 309 305 305 307 306 304 301 295 287 281 282 285 285 283 283 285 286 289 293 303 314 324 43 45 58 79 89
314 315 320 324 322 318 321 324 323 317 311 308 306 306 305 303 300 297 292 287 281 276 275 271 272 279 277 276 277 287 299 317 344 54 55 44 48 69
314 319 322 321 321 323 323 321 317 312 310 307 306 306 304 302 301 302 300 299 296 295 284 273 279 285 281 268 261 264 269 312 1 64 70 59 54 60
324 322 321 324 321 321 320 318 316 314 310 310 310 309 307 307 306 306 303 303 307 322 328 320 309 304 315 301 261 230 116 66 49 91 88 73 60 67
324 320 321 319 318 319 319 318 315 313 312 312 310 309 310 311 311 310 314 324 339 346 345 341 330 302 280 41 36 58 81 77 70 81 91 91 73 66
322 319 316 316 317 317 315 313 311 310 311 310 310 311 312 312 316 324 339 345 351 353 355 354 348 336 32 56 27 25 53 73 79 71 71 76 78 66
320 316 315 316 316 314 312 309 308 309 311 311 312 311 311 312 317 331 340 350 353 348 352 3 9 7 17 34 50 37 34 54 83 85 81 80 80 79
318 316 316 315 313 310 308 307 307 309 311 311 310 310 312 314 325 335 339 344 349 348 349 356 354 339 302 68 87 70 57 62 81 96 104 102 100 107
318 316 316 313 310 308 307 308 308 310 310 309 310 311 311 315 324 329 332 335 338 340 339 353 14 35 71 95 98 92 84 77 74 71 64 61 83 134
319 316 313 310 308 308 308 310 309 308 308 308 310 312 312 317 324 324 325 326 327 338 348 15 55 69 77 90 96 97 97 93 91 82 59 51 73 86
Height
1429 1425 1420 1414 1409 1403 1396 1390 1382 1369 1358 1350 1346 1341 1336 1329 1325 1319 1313 1307 1302 1296 1293 1290 1286 1283 1278 1276 1274 1274 1271 1269 1268 1271 1269 1270 1275 1274
1424 1419 1413 1408 1402 1396 1390 1384 1377 1369 1358 1348 1341 1334 1328 1321 1317 1313 1307 1301 1293 1288 1283 1280 1278 1272 1269 1265 1262 1261 1258 1257 1255 1254 1255 1256 1262 1265
1417 1412 1407 1402 1395 1389 1383 1377 1371 1364 1354 1343 1337 1329 1323 1317 1311 1306 1301 1295 1287 1280 1275 1271 1266 1263 1258 1255 1252 1251 1249 1249 1247 1248 1248 1248 1252 1256
1410 1405 1399 1393 1387 1382 1376 1370 1364 1357 1349 1339 1331 1325 1317 1311 1305 1300 1294 1287 1280 1273 1268 1262 1257 1253 1248 1245 1243 1241 1240 1243 1240 1239 1237 1237 1241 1246
1402 1397 1391 1386 1380 1375 1369 1363 1356 1350 1343 1335 1325 1318 1311 1304 1297 1291 1285 1280 1273 1266 1260 1254 1249 1245 1241 1238 1235 1232 1231 1232 1231 1232 1232 1233 1234 1239
1394 1389 1384 1379 1373 1367 1361 1356 1349 1343 1336 1328 1319 1311 1303 1295 1290 1283 1275 1269 1264 1258 1252 1246 1241 1236 1232 1229 1225 1222 1220 1219 1220 1222 1225 1226 1223 1230
1386 1382 1377 1372 1366 1360 1355 1349 1343 1336 1328 1321 1312 1304 1296 1290 1283 1276 1268 1259 1253 1249 1242 1236 1232 1227 1224 1221 1217 1214 1213 1212 1211 1212 1213 1215 1215 1217
1379 1375 1370 1365 1359 1354 1348 1342 1337 1330 1322 1314 1306 1298 1290 1285 1277 1269 1261 1253 1243 1239 1235 1227 1224 1219 1215 1212 1208 1205 1204 1203 1202 1202 1202 1203 1204 1204
1374 1369 1363 1358 1353 1347 1340 1334 1328 1322 1317 1311 1301 1293 1284 1277 1270 1260 1253 1246 1237 1231 1228 1217 1215 1211 1207 1204 1199 1195 1192 1192 1191 1189 1189 1190 1192 1194
1369 1364 1358 1352 1347 1341 1333 1324 1317 1313 1308 1302 1293 1285 1277 1269 1263 1255 1246 1236 1229 1225 1221 1211 1208 1204 1200 1194 1189 1185 1182 1180 1179 1178 1177 1178 1179 1182
1364 1359 1353 1347 1342 1335 1326 1317 1309 1302 1297 1291 1283 1276 1268 1261 1254 1246 1237 1230 1221 1216 1215 1209 1203 1197 1192 1186 1182 1178 1175 1171 1168 1166 1165 1165 1167 1170
1358 1353 1348 1342 1335 1328 1320 1312 1301 1293 1286 1278 1272 1265 1258 1251 1246 1240 1232 1224 1216 1208 1207 1203 1197 1193 1185 1180 1175 1171 1166 1162 1159 1157 1157 1158 1160 1160
1352 1346 1341 1335 1328 1321 1313 1305 1296 1288 1279 1271 1263 1255 1249 1243 1237 1232 1225 1218 1210 1201 1201 1197 1190 1186 1182 1176 1171 1168 1163 1156 1154 1153 1154 1156 1157 1157
1348 1341 1334 1328 1321 1313 1305 1298 1290 1282 1273 1265 1257 1249 1241 1235 1229 1222 1215 1208 1202 1195 1191 1189 1184 1180 1176 1172 1168 1164 1161 1157 1154 1153 1154 1156 1157 1157
1343 1336 1328 1321 1313 1306 1299 1292 1284 1276 1268 1260 1252 1244 1236 1228 1220 1213 1206 1200 1194 1188 1183 1180 1177 1173 1171 1168 1165 1163 1162 1160 1155 1156 1156 1158 1159 1160
1336 1329 1323 1315 1309 1302 1294 1286 1279 1272 1264 1256 1247 1238 1229 1222 1214 1206 1199 1193 1187 1181 1178 1174 1171 1169 1165 1162 1162 1162 1162 1162 1160 1159 1160 1162 1164 1166
1330 1323 1317 1310 1303 1296 1288 1281 1273 1266 1258 1250 1242 1232 1223 1216 1208 1201 1194 1188 1183 1178 1174 1171 1169 1166 1162 1159 1160 1161 1161 1163 1163 1164 1166 1168 1172 1176
1326 1319 1312 1306 1299 1291 1283 1275 1268 1260 1253 1245 1236 1228 1220 1212 1203 1196 1191 1186 1182 1178 1173 1169 1167 1165 1164 1161 1160 1161 1162 1165 1167 1170 1174 1176 1181 1187
1322 1315 1309 1302 1294 1287 1279 1271 1263 1255 1247 1240 1232 1224 1216 1209 1202 1196 1191 1186 1183 1179 1175 1171 1167 1164 1164 1163 1165 1165 1166 1169 1171 1175 1179 1183 1187 1193
1318 1312 1305 1298 1291 1283 1275 1267 1258 1250 1243 1236 1228 1221 1214 1208 1202 1198 1193 1189 1185 1181 1177 1174 1170 1168 1167 1168 1168 1171 1173 1175 1177 1180 1184 1189 1194 1200
1313 1307 1301 1294 1286 1278 1270 1262 1254 1246 1239 1231 1225 1219 1213 1208 1204 1199 1194 1191 1187 1183 1180 1177 1175 1174 1173 1174 1175 1177 1179 1181 1184 1187 1191 1195 1200 1204
1309 1303 1296 1289 1281 1273 1265 1257 1249 1241 1235 1228 1222 1217 1212 1208 1204 1199 1195 1191 1188 1186 1183 1181 1179 1178 1178 1179 1179 1181 1184 1186 1190 1193 1196 1199 1202 1207
1305 1299 1292 1284 1276 1268 1260 1253 1245 1238 1233 1227 1221 1216 1211 1207 1202 1198 1194 1191 1189 1187 1185 1184 1183 1182 1183 1184 1185 1187 1189 1192 1195 1198 1201 1203 1206 1209